Theta_e
301 293 291 291 293 295 297 298 298 299 300 299 299 298 296 296 297 300 301 304 305 301 299 300 301 301 305 317 321 322 321 320 321 321 320 320 320 320 320 320 323 325 326 328 332 333 331 331 332 333 333 332 333 333 333 333 334 336 337 337 334 336 335 335 339 339 338 337 336 339 339 336 337 336 336 339 339 341 339 341 344 345 346 346 346 346
299 292 292 295 296 297 298 299 299 299 299 299 298 297 296 297 295 300 300 303 305 301 299 301 300 301 310 317 319 322 321 318 320 320 320 320 321 322 321 322 326 328 329 328 329 332 332 332 332 333 333 333 331 332 333 331 331 333 336 336 334 335 334 336 337 337 337 337 337 338 336 336 337 339 337 336 336 339 340 343 344 346 344 344 344 344
292 290 294 297 298 299 299 298 299 298 297 298 297 297 296 296 298 301 302 303 305 302 299 301 299 300 309 317 318 318 320 319 320 323 321 321 321 322 323 324 325 325 325 327 331 331 330 332 331 331 334 334 333 332 332 332 332 333 334 336 335 336 334 335 335 337 336 337 336 336 336 337 336 336 338 339 339 342 338 344 343 343 343 341 340 340
289 292 296 299 299 297 297 298 298 298 297 296 296 295 294 298 296 293 300 302 304 302 299 300 298 301 315 316 317 318 319 321 324 325 324 323 321 322 324 324 323 324 324 326 328 329 329 330 330 331 333 332 332 331 331 332 332 333 334 335 335 334 335 335 334 337 337 337 338 338 339 337 337 337 340 337 338 337 339 340 340 339 339 338 337 337
291 296 300 299 298 297 296 297 296 295 294 296 297 296 296 297 298 298 299 301 303 303 303 301 298 307 311 310 312 316 319 320 321 324 324 324 325 326 326 325 326 325 326 326 327 328 329 329 329 330 332 332 331 331 331 332 333 333 335 335 334 334 334 335 336 337 337 338 336 338 337 336 336 336 335 334 333 335 338 337 337 337 337 336 335 336
294 298 300 298 297 297 296 295 296 295 293 295 297 298 299 300 299 299 300 300 297 296 300 299 292 300 307 309 310 314 316 318 321 321 322 323 325 327 325 325 327 328 329 328 327 327 329 330 330 331 331 331 331 330 331 334 335 334 334 334 334 335 336 337 336 337 338 335 335 333 331 329 329 327 328 328 331 335 335 335 336 335 334 334 334 333
296 300 299 297 296 296 296 296 297 297 294 293 295 300 300 301 300 299 299 299 293 291 297 301 292 291 307 306 309 311 313 316 319 320 320 322 324 326 325 325 326 327 328 329 328 328 329 329 329 330 330 331 331 332 333 334 334 334 334 334 335 336 334 334 335 336 336 333 333 333 332 331 330 328 328 335 337 337 336 335 333 332 333 331 332 332
299 298 298 298 297 295 294 293 297 298 294 292 300 300 300 300 299 299 299 297 296 300 301 300 297 294 299 305 312 311 311 314 316 318 318 320 323 323 324 324 325 327 328 328 327 328 329 330 330 330 330 331 332 333 333 332 333 333 333 335 335 334 333 333 334 336 335 333 334 333 332 330 329 329 331 335 335 336 335 333 332 331 331 331 330 329
298 296 297 296 296 295 294 296 298 299 295 296 300 301 300 300 300 300 299 298 298 297 293 296 299 292 297 304 310 312 307 311 312 314 317 318 320 322 323 323 325 328 328 329 328 328 328 329 331 331 330 332 333 333 332 332 333 333 333 334 334 334 332 334 336 336 336 334 333 332 330 330 330 333 335 335 335 334 334 331 330 330 331 330 328 326
299 299 299 299 296 294 298 299 300 299 295 299 302 302 302 301 301 300 298 297 297 294 290 294 297 290 291 305 305 308 308 307 309 312 315 318 317 320 322 324 324 326 329 329 329 329 329 331 331 332 333 333 333 334 334 334 334 333 333 333 333 332 334 335 334 335 334 335 333 330 331 331 333 334 334 334 332 332 331 329 329 328 328 327 327 326
300 304 304 300 297 299 300 300 301 300 300 302 302 300 299 299 298 299 298 298 296 288 291 296 297 294 288 300 303 303 306 310 310 312 315 315 317 319 322 323 326 326 327 328 329 330 331 332 332 332 332 332 333 334 333 333 333 333 332 332 332 333 333 334 336 335 336 337 335 334 333 333 333 334 334 331 329 329 328 326 326 326 325 325 324 325
299 300 300 301 303 302 302 299 301 302 302 300 298 297 296 294 297 296 296 297 289 287 293 297 297 297 287 299 304 309 312 312 313 311 315 313 314 317 319 321 325 326 327 329 329 329 330 330 330 331 330 331 331 331 331 332 333 332 333 333 332 332 333 333 333 333 331 331 331 331 330 328 329 330 328 327 326 325 324 325 325 327 326 323 324 324
295 296 300 301 304 301 299 297 297 300 300 298 297 296 290 288 288 286 290 286 287 286 294 297 297 294 292 302 305 308 310 312 312 312 313 314 315 318 321 324 325 328 326 327 327 327 328 328 328 328 329 329 329 329 330 330 331 332 332 332 329 328 329 328 329 328 329 328 328 328 328 328 328 327 327 326 325 325 324 325 325 324 322 322 320 320
293 298 298 298 300 302 300 293 293 293 296 296 294 293 290 285 284 282 286 288 289 293 297 296 298 292 298 302 309 308 310 313 315 315 314 315 314 316 323 325 326 327 328 327 327 327 327 327 328 328 328 329 329 329 329 329 329 330 330 328 326 326 327 327 326 326 325 326 326 327 328 328 326 324 324 324 323 323 323 323 322 321 321 319 319 318
285 287 293 296 293 301 299 298 297 295 295 295 297 295 292 291 286 281 285 283 285 289 293 298 293 291 292 297 310 312 312 312 314 314 316 316 319 320 324 325 326 326 326 326 326 326 327 327 328 328 329 329 329 328 328 329 329 329 327 326 325 324 325 325 324 324 324 323 324 325 327 326 324 323 322 322 323 322 321 322 320 321 320 319 318 318
291 290 296 299 299 300 297 300 301 298 295 297 298 299 294 291 296 287 289 289 289 289 289 292 291 298 297 306 310 311 312 311 313 314 315 315 322 322 323 323 322 323 324 325 325 326 327 327 327 328 328 328 327 327 328 327 328 327 326 326 325 324 324 323 322 322 322 322 323 323 323 323 323 322 321 321 321 321 322 321 320 319 320 319 320 320
292 289 297 298 301 299 298 300 300 301 288 294 296 292 294 300 297 291 291 298 292 290 287 294 294 298 304 306 308 309 309 310 312 313 313 316 320 321 321 322 321 323 324 324 325 326 326 326 327 328 327 327 327 327 327 327 327 326 325 325 323 322 322 322 322 321 321 321 321 322 322 322 322 321 320 319 320 320 320 320 319 319 318 319 319 318
289 291 297 296 295 299 301 301 301 301 301 296 291 295 301 303 301 295 287 289 288 285 287 294 291 295 295 292 305 307 306 309 310 312 314 317 320 319 320 321 321 322 324 325 326 327 327 326 327 327 327 327 327 326 326 326 327 326 325 324 322 321 320 320 320 320 320 319 319 319 320 320 320 319 319 320 319 320 319 319 319 319 318 317 318 318
297 289 294 297 297 298 301 300 298 302 302 297 295 303 293 289 288 294 291 284 284 283 286 290 293 293 295 296 302 303 304 307 311 313 312 314 317 318 320 322 322 323 324 325 325 326 326 326 326 326 327 326 326 326 325 324 325 325 324 323 321 320 320 319 319 319 319 319 319 319 319 319 319 319 319 319 319 319 317 317 317 317 317 317 317 317
298 289 290 297 296 298 298 297 289 294 299 301 302 297 300 296 293 289 290 293 291 285 285 287 291 289 298 300 303 304 306 308 309 310 310 311 318 319 321 321 321 322 324 323 324 325 325 326 325 325 324 323 323 323 324 324 323 322 322 322 321 320 319 319 318 318 318 318 318 318 318 318 317 317 317 317 317 316 316 316 316 316 315 316 316 316
293 299 286 293 298 297 290 294 292 294 292 294 295 294 295 296 299 296 297 292 290 287 286 286 285 292 299 305 305 305 307 309 310 311 317 320 321 323 322 321 321 323 323 323 324 324 324 324 324 324 323 323 323 324 324 323 321 320 320 319 319 318 317 317 318 318 317 318 317 317 316 316 316 316 316 316 317 316 316 316 315 315 315 315 315 315
292 293 288 291 292 291 292 297 298 297 297 295 294 294 294 292 290 287 287 296 294 291 287 286 285 295 302 306 308 307 309 310 311 320 321 322 322 322 321 321 321 322 323 323 323 323 323 323 323 323 322 322 321 321 320 320 319 318 318 318 317 316 316 315 315 316 316 317 317 316 316 316 316 315 316 316 316 316 315 315 315 315 314 314 314 313
299 297 294 288 291 292 295 298 300 301 300 298 297 295 297 296 295 291 285 290 294 294 296 294 289 291 308 312 310 311 311 310 312 315 321 322 321 321 321 321 322 323 322 323 323 323 323 322 322 321 320 320 320 319 318 318 318 317 317 317 316 315 315 315 315 315 316 316 315 315 315 315 314 315 315 315 315 315 314 314 314 314 313 312 311 311
302 294 290 291 295 297 298 300 300 300 299 297 297 298 297 294 295 294 293 295 292 293 291 291 287 293 306 314 314 314 312 312 313 316 321 322 321 321 320 321 322 321 322 323 323 322 322 321 320 320 319 318 318 317 317 317 317 317 316 316 316 315 315 314 315 315 315 315 314 314 314 314 314 315 315 314 314 313 313 314 313 313 312 311 310 309
291 295 292 287 287 290 292 295 295 298 298 295 294 296 298 298 298 298 298 300 291 293 293 290 285 294 306 315 311 311 311 310 311 318 322 321 321 320 320 321 321 321 321 321 321 321 321 319 318 318 317 316 316 317 317 317 317 317 316 316 315 314 314 314 314 314 313 314 313 313 313 313 313 313 313 313 313 313 313 313 312 312 310 311 310 309
294 293 292 285 282 280 280 281 284 287 291 295 297 296 297 297 297 296 290 293 288 294 295 291 289 301 307 311 310 309 309 309 312 320 323 322 320 319 319 320 319 320 320 320 320 320 318 317 317 316 316 316 316 316 316 316 316 315 315 315 315 313 313 313 313 313 312 312 312 312 312 312 312 312 312 312 312 312 312 312 311 310 310 309 308 308
296 297 295 292 289 287 289 292 295 295 294 291 293 295 295 297 298 298 296 292 289 292 291 295 296 300 302 306 308 308 309 310 317 317 320 319 319 319 319 319 319 319 319 320 320 319 317 316 316 316 316 316 316 316 316 315 315 314 314 314 314 313 313 313 313 312 312 311 311 310 310 311 312 312 312 312 312 312 311 311 311 310 309 309 308 307
296 292 294 295 295 295 295 295 296 296 293 294 294 294 296 296 297 297 292 291 298 293 288 296 302 299 300 304 305 308 310 315 317 318 318 319 318 318 318 318 315 318 319 319 319 317 316 316 316 315 315 315 316 316 315 314 314 314 315 312 312 312 312 313 312 311 311 311 310 310 310 311 311 311 311 310 310 310 310 310 309 309 309 309 308 307
295 289 295 296 295 296 297 296 297 296 295 295 295 295 295 296 296 295 297 297 299 291 290 299 304 301 300 303 307 313 316 316 316 316 317 318 318 318 318 317 317 317 317 317 317 316 315 315 314 314 315 315 315 314 313 313 313 313 313 312 311 312 311 312 311 310 310 310 309 309 310 310 310 310 310 309 309 308 308 308 308 308 308 308 308 308
296 292 296 296 295 296 296 296 297 295 295 295 295 296 296 296 296 296 297 299 298 298 298 299 303 303 303 306 312 313 316 316 316 316 316 316 316 316 316 317 316 316 316 316 316 315 315 314 314 314 314 314 313 313 312 311 311 311 311 311 311 311 311 312 311 309 309 308 308 309 308 309 309 308 308 307 307 307 307 307 308 308 307 307 307 307
295 290 294 296 293 292 295 297 296 296 295 294 295 296 296 296 296 296 298 299 301 299 300 300 301 299 304 310 314 316 317 317 315 314 314 315 316 315 315 315 315 315 315 315 315 315 314 314 313 313 312 313 314 312 311 311 311 311 311 310 310 310 310 311 309 309 308 307 308 308 308 308 307 307 307 307 307 307 307 307 308 307 307 307 307 307
296 291 296 295 289 290 295 295 295 296 296 294 294 295 295 296 295 296 294 299 297 296 299 300 296 297 303 311 314 316 316 314 313 313 313 314 315 315 314 314 314 314 314 314 315 313 313 312 312 312 312 313 313 312 311 311 311 310 309 310 309 310 311 310 309 308 307 307 308 307 307 307 307 306 306 306 306 306 306 307 307 306 307 307 306 307
295 293 290 291 288 288 294 295 295 295 293 290 291 295 296 297 298 298 298 300 301 302 296 292 295 301 307 313 313 314 314 314 314 314 314 315 316 316 315 315 314 314 314 314 312 312 312 311 311 311 312 312 313 312 312 311 310 309 310 310 310 310 309 308 308 307 306 306 306 306 306 306 305 305 305 305 305 306 306 305 305 305 305 306 307 307
296 295 291 295 287 288 294 295 295 290 283 285 297 302 300 298 297 296 297 300 302 302 299 301 302 306 311 312 311 313 314 314 315 316 317 316 315 315 316 316 315 315 313 312 312 311 310 310 310 311 312 313 314 313 313 313 311 311 311 310 310 309 308 307 307 306 306 306 305 306 306 305 305 304 305 305 305 305 305 304 304 305 305 305 306 306
295 294 291 294 288 287 292 293 286 282 284 300 303 303 302 301 300 298 299 300 300 301 302 301 302 304 309 308 312 314 317 318 318 317 316 317 317 317 316 315 314 312 312 311 310 309 309 310 310 310 312 312 312 312 312 310 311 310 310 309 308 307 307 306 306 306 306 305 305 305 305 304 304 304 304 304 305 305 304 304 305 305 305 305 305 305
292 292 292 290 290 290 289 287 280 282 297 301 305 305 307 303 302 302 298 300 301 301 302 300 302 304 309 309 313 315 317 317 317 317 318 318 318 317 317 314 312 312 311 310 309 309 309 310 311 312 312 312 312 312 311 310 310 309 308 308 307 306 306 305 305 305 305 304 304 304 304 304 304 304 304 304 304 304 304 304 304 304 304 304 304 304
297 295 293 288 293 285 287 287 286 296 295 297 299 301 301 298 299 297 291 296 302 303 302 301 302 303 312 310 312 314 316 315 314 313 317 317 318 319 319 314 313 312 311 311 311 310 311 312 313 314 313 312 312 311 310 311 310 309 305 305 305 305 305 304 303 303 304 303 304 304 304 304 303 303 304 304 303 303 303 304 304 304 305 303 303 303
299 293 294 290 287 289 287 286 286 286 283 289 299 304 306 307 305 306 299 295 306 304 304 303 302 303 312 310 310 312 315 311 306 308 314 317 317 318 315 315 313 312 312 312 311 311 312 314 314 313 312 311 311 310 310 309 308 306 304 303 304 303 303 303 302 303 303 303 303 303 303 303 303 303 303 303 303 303 304 304 305 305 305 304 303 302
299 298 296 291 288 288 287 285 285 283 286 296 299 303 305 305 305 305 298 292 302 304 305 304 303 304 304 309 309 310 309 304 304 308 314 316 316 315 313 312 312 312 312 312 312 311 312 312 311 311 311 310 309 309 309 307 305 303 302 302 302 302 302 302 303 303 303 303 303 303 303 303 303 302 302 302 302 303 303 304 304 305 306 306 305 304
295 293 292 289 288 288 287 285 285 288 288 297 301 303 304 306 307 301 287 288 302 304 305 305 304 305 305 306 312 311 307 299 304 309 316 317 315 313 312 311 310 310 311 312 312 312 311 311 310 309 308 308 308 309 307 306 304 303 302 302 303 302 301 302 302 302 303 302 303 303 303 303 303 302 302 302 303 303 303 304 304 305 305 305 303 303
291 291 291 288 288 288 287 287 289 290 298 305 303 306 306 309 303 290 285 293 309 311 306 306 305 307 308 309 313 309 311 311 311 315 316 317 313 312 312 312 311 311 310 310 310 306 309 309 308 307 307 307 309 309 307 305 303 302 302 302 301 300 301 301 302 301 301 302 302 302 302 303 303 303 303 303 303 304 304 305 306 307 306 304 304 303
290 291 290 291 288 287 288 286 287 292 302 305 307 306 308 303 290 288 306 310 311 309 309 306 306 307 309 314 313 314 314 314 315 316 316 315 313 312 312 312 311 311 311 310 308 308 308 307 308 309 309 310 308 306 305 303 302 301 301 300 299 300 300 301 301 301 301 301 302 302 303 303 304 304 304 304 304 304 303 305 306 306 305 304 304 304
290 288 287 287 289 290 289 287 285 283 295 309 307 304 307 295 295 307 310 312 312 312 312 308 306 307 309 308 312 314 314 315 315 315 315 314 313 311 311 310 309 308 307 307 307 308 308 306 306 307 306 305 305 304 303 302 301 300 300 299 299 300 300 300 301 301 302 302 302 303 303 303 303 303 304 304 304 304 304 304 305 305 305 305 305 304
297 288 289 289 293 287 286 285 286 295 303 310 306 296 304 306 310 313 311 310 312 313 312 311 313 311 309 308 308 312 315 315 316 315 313 313 312 312 311 310 309 308 307 308 308 307 306 305 305 304 304 304 303 303 303 301 300 300 299 298 299 300 301 302 302 302 302 302 302 302 301 301 302 303 304 304 304 303 303 303 303 304 304 304 303 302
297 294 295 289 295 291 290 295 301 307 308 308 310 311 310 314 315 314 314 311 311 312 314 313 312 316 315 312 316 316 314 315 314 315 312 312 312 311 309 308 308 307 307 306 306 306 305 304 303 302 302 302 302 302 302 301 300 299 298 299 301 301 301 302 302 302 301 301 301 301 301 301 301 302 303 303 304 303 303 304 305 303 303 304 304 303
300 300 304 299 296 301 304 305 307 306 307 308 310 313 313 313 313 315 313 311 313 314 314 314 316 316 317 318 316 315 315 315 313 313 313 312 311 310 308 308 307 307 306 305 305 304 304 303 302 301 300 300 301 301 302 301 300 299 300 301 302 301 302 302 301 301 300 300 300 300 300 300 300 301 302 303 303 303 303 302 302 302 303 304 304 303
302 302 299 296 300 295 290 302 305 305 307 308 310 312 315 314 314 314 312 313 313 313 315 316 317 316 317 317 316 315 315 315 312 311 311 311 310 309 308 306 306 305 304 303 303 302 302 301 300 300 300 299 301 301 301 301 301 301 301 301 302 302 302 301 301 300 299 299 299 300 300 300 300 301 302 303 303 303 303 302 302 303 302 303 302 301
297 305 299 299 297 292 293 301 305 308 310 310 309 308 308 311 312 312 314 315 315 316 316 317 317 316 318 316 318 315 314 314 312 311 309 308 308 308 306 305 304 303 304 303 303 303 302 301 300 300 300 300 301 302 302 301 301 301 301 301 302 302 301 300 299 299 299 299 299 299 300 301 295 299 301 302 303 303 302 303 301 299 297 297 298 302
302 302 294 300 296 298 301 303 307 307 307 307 307 308 311 314 313 311 314 315 315 314 316 316 319 315 315 315 316 315 313 312 312 311 309 309 307 305 305 307 306 303 303 301 301 302 301 300 300 301 301 301 302 302 302 301 301 301 302 302 302 301 300 299 298 299 299 300 300 300 300 300 301 301 301 298 296 296 297 299 299 296 294 295 295 296
303 297 302 299 293 292 295 301 305 296 294 304 308 310 312 314 314 313 313 314 314 313 313 314 314 317 316 317 317 315 312 311 311 310 308 307 306 305 303 303 304 303 302 302 302 302 301 301 301 301 301 301 301 301 301 301 301 302 302 302 301 301 300 299 299 299 299 300 300 299 299 300 301 301 301 299 297 296 295 289 291 295 295 294 290 288
300 300 301 295 296 295 303 308 309 307 307 308 310 312 313 314 314 312 313 313 313 313 314 313 313 314 314 315 316 315 312 312 311 311 309 308 306 305 303 302 301 301 301 301 301 301 301 301 301 301 301 301 301 301 301 301 301 302 302 302 301 301 300 300 299 298 299 299 298 298 300 301 301 302 301 299 298 297 294 294 293 289 289 290 290 289
Wind_Speed
11 15 16 18 16 18 21 21 19 17 15 16 15 15 16 16 14 16 20 13 19 15 17 17 16 15 12 14 13 14 14 14 13 12 9 8 10 11 11 12 13 13 9 7 4 6 6 5 5 7 7 8 8 7 8 10 10 8 6 7 8 7 8 3 4 5 4 3 3 2 2 4 2 2 3 3 3 1 4 7 4 3 3 1 2 2
14 16 18 19 19 19 21 19 18 19 21 17 15 15 14 17 15 14 17 16 19 13 13 17 17 16 13 15 14 13 13 14 15 14 13 11 10 9 14 15 15 13 12 13 11 10 8 7 8 7 7 8 11 7 8 9 10 10 8 8 8 6 5 3 6 5 4 3 2 1 2 2 2 3 4 3 3 1 4 5 2 3 3 4 4 4
17 19 18 19 19 19 20 20 17 19 21 20 13 14 14 14 15 17 17 20 16 13 10 16 16 15 15 15 14 15 12 11 12 14 16 16 12 10 12 14 12 17 15 14 14 12 9 11 10 7 8 7 8 10 9 9 10 10 9 8 7 6 6 6 7 3 5 2 1 3 2 3 2 1 2 1 3 2 5 1 3 4 5 5 5 6
16 16 19 19 17 19 18 20 21 19 19 16 14 13 13 13 15 14 17 18 14 10 10 14 15 3 16 11 11 10 8 8 10 12 14 14 18 16 15 16 12 11 17 19 17 14 10 11 10 8 8 7 8 9 9 8 11 9 7 8 7 7 7 6 4 2 2 5 4 2 3 3 2 2 1 2 2 2 5 4 6 6 6 7 6 7
16 13 17 19 19 20 20 21 22 16 15 17 17 14 11 15 16 15 11 14 13 12 12 9 11 11 12 13 8 8 10 8 8 14 14 11 9 8 9 10 11 13 11 12 15 15 13 13 11 10 10 9 8 8 8 8 8 8 11 9 8 8 8 7 6 4 3 2 2 3 4 4 4 3 2 3 2 6 2 5 5 5 5 6 7 7
17 17 18 21 21 22 21 18 20 17 15 15 20 18 14 12 15 18 18 14 10 10 14 13 10 9 14 17 14 10 9 7 7 12 14 14 12 12 13 12 11 9 10 14 15 14 13 13 12 11 11 10 9 8 7 5 8 11 10 9 9 8 7 7 7 6 6 5 4 4 3 3 2 3 5 1 5 3 3 4 5 7 7 7 7 6
12 17 20 22 21 22 22 17 20 20 15 14 15 18 17 14 15 19 20 13 10 11 13 16 14 5 12 13 17 13 11 10 6 8 13 14 14 13 11 11 11 10 10 10 13 14 14 13 13 12 10 10 10 9 9 8 9 10 10 9 9 8 8 7 8 8 7 6 5 4 2 1 2 3 2 3 2 3 4 5 6 5 6 8 6 6
14 21 20 21 21 20 19 18 18 22 15 14 12 17 19 18 17 19 15 16 9 10 8 17 14 6 8 10 14 16 15 14 11 9 12 13 13 12 9 11 12 12 12 12 12 13 13 12 13 13 12 11 11 11 10 10 9 11 11 10 10 8 8 7 7 7 7 8 6 5 4 3 3 3 3 3 4 4 4 5 5 5 6 5 6 7
17 18 21 22 21 17 18 18 17 21 16 11 12 17 19 19 16 15 15 14 10 9 10 12 19 13 10 13 17 19 16 14 12 12 12 16 16 10 10 11 14 13 14 15 14 15 15 14 13 12 12 11 12 10 9 8 8 9 10 10 9 8 7 5 7 8 7 6 5 5 4 4 5 7 3 3 4 4 5 5 6 5 4 5 7 7
13 17 20 20 18 16 16 19 16 19 17 14 15 18 17 15 12 12 9 14 11 9 9 14 16 12 11 14 16 16 16 16 14 13 13 15 15 13 11 12 15 12 13 13 13 14 13 13 13 11 11 12 10 9 10 9 8 8 9 12 11 9 8 7 8 7 7 7 6 4 4 4 5 3 4 4 5 4 4 6 5 5 5 5 5 6
14 14 16 15 18 15 16 17 16 17 19 14 17 15 15 14 12 10 11 12 10 7 13 16 18 15 10 14 17 16 15 16 15 12 13 17 18 16 12 13 14 12 12 12 12 13 12 12 13 13 14 14 13 11 12 11 9 7 9 10 12 10 8 8 8 7 6 6 6 5 6 6 4 3 3 4 4 4 5 5 5 4 4 5 5 5
17 16 14 13 16 14 16 16 18 16 19 18 12 10 11 11 11 10 9 7 5 10 16 19 15 19 12 8 13 14 17 20 19 20 18 19 21 19 14 13 14 15 12 13 12 13 12 13 15 13 14 13 13 13 12 10 10 8 7 8 12 11 10 9 8 8 8 8 9 8 9 8 6 5 4 4 5 5 5 5 3 3 4 5 4 4
16 16 13 15 16 21 16 15 15 15 16 17 13 12 11 10 7 9 9 8 11 10 11 17 18 13 16 8 14 14 14 19 18 18 20 20 20 19 16 17 15 15 14 13 14 13 12 12 14 14 14 13 13 12 13 13 11 9 8 9 13 13 11 11 11 10 10 9 8 7 7 6 4 4 4 4 5 5 4 2 2 4 4 5 5 5
11 17 19 13 10 12 16 15 15 15 16 19 16 13 13 12 11 8 11 7 7 9 10 12 18 15 9 12 21 19 17 18 20 17 20 21 20 17 19 13 13 16 16 14 14 13 14 14 12 13 14 12 11 13 13 11 10 9 9 11 13 12 11 11 11 10 10 9 7 6 5 5 4 5 6 5 6 5 4 4 5 5 5 5 5 5
13 16 17 17 11 14 15 15 14 11 15 16 15 13 12 10 9 8 10 10 9 8 12 16 12 7 11 3 21 18 18 18 19 17 15 16 19 17 19 16 15 13 13 15 17 15 15 15 13 11 11 11 12 13 12 10 11 10 11 11 12 12 11 11 11 10 9 8 7 6 5 5 5 6 6 6 5 5 4 4 5 4 4 4 4 3
17 8 12 14 9 16 15 16 15 15 13 14 13 12 13 13 8 11 5 8 9 9 8 10 6 4 6 6 11 11 15 16 17 18 16 16 19 18 17 17 15 13 15 13 15 16 16 16 14 11 11 12 12 12 10 12 11 10 10 10 11 12 11 11 11 10 9 8 7 6 6 6 5 5 5 4 4 5 4 4 4 5 4 3 3 2
14 12 17 19 18 18 20 16 15 15 11 13 13 16 15 14 11 3 6 4 4 3 7 4 8 4 6 4 11 14 15 16 16 17 18 18 20 18 15 15 14 14 15 14 15 15 16 15 14 12 13 12 11 10 11 11 10 11 10 10 12 12 11 11 10 10 9 7 6 6 5 4 5 6 6 5 7 5 4 4 4 4 3 3 3 3
11 9 17 18 21 17 19 17 16 18 12 11 14 15 13 13 11 7 6 4 3 7 4 9 13 9 8 4 6 12 14 15 18 21 19 20 21 16 14 15 16 18 16 16 15 15 15 15 16 13 12 12 12 11 12 12 10 9 8 11 11 11 11 10 10 9 8 8 8 8 7 7 6 6 6 7 7 6 5 5 4 3 4 4 3 3
11 9 14 18 17 15 17 17 17 16 17 13 13 10 12 8 10 8 4 6 9 8 5 11 13 13 13 8 10 12 14 14 16 15 20 18 19 16 17 19 17 18 16 14 13 13 14 14 13 12 12 12 12 11 12 12 11 10 9 10 10 11 11 10 9 9 8 7 6 7 7 7 6 5 5 5 6 5 6 5 5 5 5 5 4 3
9 7 10 15 15 15 15 14 12 13 18 18 11 13 13 9 10 8 5 6 8 6 6 10 14 8 10 9 15 14 13 13 17 17 15 19 22 18 18 18 18 15 14 13 13 13 13 13 13 13 13 14 13 13 12 12 12 12 11 11 10 10 10 10 9 8 8 8 7 8 9 8 8 8 7 7 5 5 5 6 6 6 5 4 4 3
8 7 8 13 16 16 14 12 14 14 15 15 14 15 13 9 7 9 7 11 8 5 7 5 8 9 8 11 17 16 14 13 14 10 16 18 19 20 22 19 15 15 14 14 13 13 14 14 14 14 14 13 13 11 10 11 12 11 10 10 11 11 12 10 9 8 8 7 8 9 9 8 7 8 7 6 6 5 6 6 6 5 4 4 3 3
4 7 6 11 13 14 13 13 14 14 13 13 12 13 13 14 12 13 10 12 11 7 5 6 7 6 7 6 10 12 12 13 13 18 17 20 21 19 18 18 16 15 15 16 14 15 14 14 14 14 13 13 14 13 13 12 11 11 11 10 11 11 11 11 10 8 7 7 7 8 7 7 7 8 7 7 6 6 6 6 5 5 5 5 4 5
7 7 8 8 12 13 14 15 17 14 13 14 11 10 14 13 12 9 9 9 10 10 8 9 6 4 6 1 11 9 11 11 12 19 16 19 21 21 20 19 16 17 18 17 17 14 14 14 15 16 16 15 14 14 14 12 11 11 11 11 11 11 10 10 10 9 8 8 8 8 7 7 8 8 7 7 6 6 7 6 6 6 5 5 5 5
5 5 10 11 9 10 14 13 17 18 14 15 14 13 12 14 15 9 8 6 8 10 8 5 5 2 2 5 5 8 11 9 9 13 19 17 18 20 23 21 17 17 16 18 17 15 13 13 15 14 15 14 13 14 14 12 12 11 11 11 10 12 12 11 9 9 9 8 9 9 8 8 8 7 7 7 6 7 6 6 6 6 6 6 5 6
5 7 9 9 8 10 10 12 15 18 15 12 12 14 15 13 17 14 9 6 4 9 11 6 8 3 3 2 4 9 10 12 11 17 20 17 16 17 21 17 14 16 17 17 19 18 16 16 17 15 16 15 14 14 11 12 12 11 11 10 12 12 11 11 10 9 9 8 9 8 8 8 8 7 7 7 6 7 6 6 6 5 7 5 5 6
5 10 10 10 12 13 13 15 16 16 16 10 13 17 18 16 17 13 9 7 5 6 14 7 4 9 8 5 5 9 11 10 7 17 17 21 20 18 18 15 14 15 14 18 19 19 17 15 14 15 15 15 15 14 13 12 11 11 11 12 11 12 11 11 10 10 10 10 10 10 10 9 8 8 8 7 7 7 6 6 6 6 6 6 7 6
4 8 9 10 10 10 11 10 9 9 8 11 15 19 19 17 15 12 6 6 8 5 7 10 7 11 10 10 7 7 10 4 14 17 19 18 17 16 17 15 15 13 16 17 17 17 15 14 17 16 15 15 15 14 12 13 13 12 12 12 12 11 11 10 10 11 10 10 10 10 10 9 8 7 7 6 6 6 6 6 6 6 6 5 6 6
4 5 14 14 15 11 10 11 14 17 16 16 16 17 16 17 16 13 8 9 9 7 8 7 11 12 9 9 9 8 8 15 13 16 17 16 16 15 14 15 13 13 15 15 14 17 17 15 15 16 15 15 14 15 14 13 12 11 11 14 13 11 9 8 10 11 11 10 9 10 9 8 8 7 7 6 7 7 7 7 6 6 5 6 6 6
8 3 9 13 13 12 13 13 15 16 16 15 15 13 13 14 17 17 10 13 9 6 5 5 10 9 9 9 8 12 15 15 15 14 14 14 12 10 14 15 15 14 15 15 15 15 17 15 14 15 15 14 15 16 14 13 13 11 11 12 12 11 11 10 11 11 10 10 10 9 8 8 7 7 7 8 7 7 7 7 6 6 6 5 5 5
7 5 9 13 10 10 10 13 15 18 16 16 16 14 14 15 17 18 13 10 12 10 10 5 12 9 9 7 13 13 13 17 15 13 12 11 11 14 13 13 15 15 16 15 14 16 17 16 15 14 14 14 17 16 15 14 14 12 11 12 12 11 10 10 10 10 11 11 10 9 10 9 8 8 8 8 8 7 7 7 6 6 6 6 6 6
2 5 10 12 9 10 14 13 10 9 11 14 15 16 15 14 16 16 10 9 11 11 8 7 8 7 8 7 15 14 14 15 14 15 16 17 15 12 13 11 13 14 15 17 15 12 16 17 16 14 14 15 15 15 14 13 12 11 13 12 11 11 10 11 11 10 10 11 10 10 9 9 9 8 9 8 7 7 8 7 6 6 7 6 6 5
4 4 10 9 4 7 9 8 11 12 14 16 15 15 16 14 12 11 10 9 9 8 8 9 8 6 8 14 15 15 16 17 17 17 17 16 19 18 16 15 14 14 13 14 15 15 14 15 15 14 13 12 13 14 13 12 12 12 13 13 12 11 10 10 11 11 10 10 10 10 10 9 9 9 9 8 8 8 8 7 7 7 6 6 6 5
8 5 5 5 6 6 9 12 7 6 9 11 11 13 16 13 11 11 13 13 11 7 6 5 9 6 12 15 15 13 15 16 16 15 16 17 18 20 21 20 18 16 15 11 13 16 15 14 14 13 12 13 12 12 12 12 12 12 11 12 11 11 11 10 10 10 11 10 11 10 9 9 10 9 8 8 8 7 7 8 8 7 6 6 5 5
8 8 5 6 4 5 12 10 4 3 7 7 2 7 10 11 13 15 12 10 9 8 8 7 6 6 14 14 16 15 15 15 14 13 13 15 15 16 16 18 17 13 13 16 15 13 13 13 12 12 12 9 10 11 12 10 11 11 11 11 12 12 11 12 11 10 10 10 10 10 9 10 9 9 8 8 7 7 8 8 8 6 5 5 5 5
7 5 4 8 4 4 5 5 4 7 7 5 6 7 7 7 13 18 14 16 15 15 13 10 9 6 12 10 10 11 11 12 13 15 14 14 15 14 16 16 15 16 15 14 16 16 15 16 15 15 13 12 12 11 11 10 9 11 12 9 11 11 11 11 11 10 10 10 10 9 9 10 9 9 9 8 8 7 8 7 6 6 4 4 5 4
4 4 4 4 3 3 6 6 7 7 1 2 5 7 7 6 8 5 14 14 16 14 12 12 13 10 14 13 11 8 11 11 11 11 14 14 14 13 14 14 16 16 15 15 18 17 17 17 17 15 13 12 12 12 11 10 10 10 10 10 10 10 10 11 10 11 10 10 10 10 9 9 9 9 8 8 8 8 7 6 6 6 5 5 5 5
10 6 3 4 7 5 5 7 7 3 2 5 2 5 6 6 6 2 2 12 14 12 14 14 13 11 16 14 13 12 13 12 10 9 11 14 13 12 12 16 16 15 17 16 17 19 18 18 17 15 15 14 11 12 11 9 10 8 9 10 10 10 10 10 10 11 10 10 10 9 9 9 9 9 9 9 9 8 7 6 5 5 4 5 5 5
11 8 6 5 3 4 5 6 6 6 6 4 9 6 4 7 7 6 3 6 4 11 11 11 14 15 15 16 15 14 13 10 9 9 11 14 12 10 16 16 16 16 17 16 16 17 15 13 13 13 13 13 11 11 12 12 11 11 10 10 11 11 11 11 11 11 10 10 10 9 8 9 9 9 9 8 9 8 6 5 4 4 4 4 5 5
12 9 6 5 3 4 5 7 6 6 3 2 6 8 7 5 3 1 2 8 6 8 9 13 15 13 11 15 16 15 12 9 8 8 11 15 13 16 18 17 17 17 16 16 15 14 14 14 15 14 13 13 14 13 12 13 14 12 11 11 11 11 11 11 11 11 11 10 9 9 8 8 8 8 8 8 8 7 6 5 4 3 3 4 4 5
12 7 4 5 5 4 4 4 5 3 1 1 5 9 9 6 4 5 7 8 5 10 10 10 9 12 14 9 14 14 11 6 8 10 14 14 15 16 17 18 17 17 16 15 16 18 17 16 16 15 15 15 14 14 15 15 14 12 11 11 11 11 10 10 11 11 10 10 9 8 8 8 8 8 8 8 7 6 6 4 4 4 4 3 3 4
7 5 6 7 6 6 6 4 3 2 3 6 3 5 7 7 8 7 8 1 4 7 11 11 11 9 9 9 16 11 11 9 9 12 17 18 20 18 17 17 18 19 18 17 15 13 14 15 16 18 18 16 17 15 15 14 12 11 10 11 11 11 10 11 11 11 11 10 10 10 9 8 7 8 8 7 7 6 5 4 3 3 3 4 4 4
8 5 5 5 7 7 6 6 5 1 0 4 6 5 7 7 6 7 1 4 6 6 7 13 14 13 9 10 11 10 9 6 10 19 18 20 22 20 19 19 19 16 17 16 16 15 13 13 14 18 18 14 15 15 14 13 12 11 11 11 11 12 11 12 12 11 11 11 11 10 9 9 8 7 7 7 6 6 5 4 3 3 4 4 3 4
7 5 8 8 5 5 4 5 5 6 2 6 11 9 7 5 1 3 3 4 6 6 7 8 14 12 10 8 11 11 11 19 20 19 19 20 22 22 21 22 22 19 19 18 16 16 18 16 14 16 16 16 16 14 13 14 14 13 12 12 13 12 12 12 11 11 11 10 10 9 9 8 8 7 6 6 6 6 5 4 4 4 4 4 3 3
10 7 5 5 6 6 5 6 2 3 6 5 7 3 5 2 2 1 4 3 7 8 5 5 3 5 12 13 10 10 16 19 19 21 19 20 19 20 20 19 18 16 15 14 15 15 14 16 16 16 16 14 13 12 13 14 14 13 13 14 13 12 12 11 11 11 11 10 10 10 10 10 9 8 7 7 6 5 5 5 5 5 5 5 5 4
10 8 2 1 4 5 1 4 4 2 5 4 5 5 4 6 3 4 3 4 3 2 6 5 3 10 11 6 12 16 17 16 18 20 21 21 21 21 22 22 23 20 19 17 16 17 15 17 16 15 15 13 15 13 13 13 14 15 15 13 13 13 13 12 12 11 11 11 11 10 10 9 8 8 7 7 6 5 5 4 4 4 4 4 3 4
7 11 3 2 6 2 8 7 8 6 5 4 4 2 4 3 3 2 4 3 3 4 6 6 5 8 9 14 14 15 15 16 16 17 20 21 20 19 20 21 18 18 18 18 16 16 17 17 17 16 16 15 15 14 12 13 14 15 14 13 13 13 12 12 12 12 12 12 11 11 12 11 10 9 7 6 5 5 4 5 4 4 3 2 2 2
6 8 7 3 1 6 2 5 7 8 5 3 6 2 2 2 2 2 1 1 3 4 5 5 2 5 4 8 11 12 15 17 21 18 19 17 20 21 21 20 18 19 20 19 18 17 17 17 16 16 16 16 14 14 14 15 13 14 13 13 13 13 13 13 12 12 11 11 11 10 10 10 8 7 6 5 4 4 3 4 3 3 3 3 3 3
6 5 8 6 8 6 1 4 5 10 6 4 5 5 5 4 3 2 1 2 2 3 1 1 5 6 4 6 7 11 15 19 21 20 18 18 18 18 19 18 19 17 17 18 18 18 17 16 17 17 16 15 14 13 15 15 14 15 14 13 14 13 13 12 12 12 12 12 10 9 10 8 9 8 6 5 3 3 3 4 7 7 6 6 5 2
5 5 4 7 8 8 6 6 5 11 3 6 6 3 2 5 4 3 1 3 2 3 2 1 3 6 6 5 9 13 17 17 20 20 20 18 16 13 14 19 19 16 16 18 17 18 17 17 17 17 17 15 13 14 14 14 14 15 14 14 14 14 13 12 12 12 12 11 10 9 9 8 7 6 7 9 9 8 6 3 6 7 7 6 4 4
3 3 8 6 7 3 3 2 6 1 2 3 9 2 4 5 4 4 3 3 4 3 2 6 4 3 8 9 10 14 18 17 17 18 19 17 18 17 14 13 16 18 16 16 15 15 16 16 18 17 16 14 14 14 14 15 14 14 15 15 14 14 12 12 12 12 11 10 9 9 9 7 7 8 8 7 7 8 8 13 12 7 6 5 4 9
3 3 5 4 3 3 3 4 3 3 5 8 5 1 3 2 2 2 3 5 4 1 4 3 6 7 10 11 8 10 15 17 18 16 16 16 17 16 15 16 16 17 17 17 17 16 17 16 16 16 15 14 14 14 15 14 14 14 15 14 14 14 13 13 11 10 9 9 9 10 8 7 7 7 8 8 7 7 7 6 8 11 11 9 6 8
Wind_Direction
181 203 199 206 205 201 211 213 212 221 222 213 208 207 214 222 226 212 235 181 176 193 206 220 217 208 191 152 153 141 129 126 129 133 140 144 140 135 141 135 141 142 137 129 137 124 141 124 101 109 107 113 113 131 116 102 104 107 116 120 94 56 46 26 53 55 43 41 13 13 51 59 53 140 26 17 343 53 245 253 208 132 125 176 96 65
201 208 211 205 206 203 208 216 212 220 242 233 215 217 212 213 231 214 219 213 167 199 201 213 224 216 172 157 152 145 146 148 147 143 146 147 147 144 145 149 149 135 139 151 150 147 157 133 115 115 115 127 127 126 117 118 128 132 123 108 108 104 138 128 72 49 44 0 342 357 46 86 116 107 150 200 200 164 288 241 174 39 64 59 48 46
206 212 207 206 204 211 208 212 215 220 231 243 240 213 220 210 226 234 211 226 182 183 223 194 224 223 150 150 145 151 153 161 163 150 150 149 157 150 149 151 149 148 154 158 146 147 149 125 121 128 135 124 122 126 124 130 128 114 104 107 116 130 128 87 69 73 157 140 63 37 15 47 24 346 335 2 44 75 230 257 44 43 40 40 39 24
203 214 206 203 203 210 207 206 214 215 229 233 240 247 218 208 202 223 210 221 189 171 217 190 208 101 108 121 130 128 133 142 150 145 145 155 162 166 161 156 159 167 160 157 151 144 136 129 132 141 136 121 128 126 131 144 121 116 123 127 142 130 101 101 120 169 50 65 68 68 98 56 37 30 72 57 357 351 250 54 43 42 40 37 33 30
206 198 200 202 203 206 209 203 207 209 220 229 235 232 236 212 206 233 197 209 161 176 235 194 176 121 143 134 130 140 132 141 143 139 144 145 153 141 133 142 159 173 176 149 141 136 136 138 142 155 146 143 137 140 146 144 133 129 131 146 143 114 108 112 118 94 66 62 78 83 58 41 34 358 9 34 358 232 57 61 41 45 49 42 34 34
203 201 191 203 200 202 210 203 204 203 217 220 229 232 234 227 205 209 233 188 174 193 196 229 199 183 150 151 150 148 142 136 153 145 142 151 155 157 155 162 169 177 182 152 140 136 133 135 138 147 155 149 141 141 148 134 124 125 136 135 114 106 105 109 113 100 97 62 37 30 70 81 51 0 16 313 193 112 56 63 57 43 42 45 36 34
202 194 192 200 199 197 207 211 198 207 213 218 211 227 237 223 212 207 229 165 180 207 184 211 238 186 155 165 150 156 159 147 169 163 147 159 165 160 168 172 182 169 154 122 120 131 136 138 136 144 153 152 145 143 142 134 135 138 132 123 126 120 120 126 122 114 111 126 135 156 120 107 102 100 245 220 67 76 88 78 66 55 47 47 41 31
204 193 193 197 200 197 201 211 201 201 212 217 194 214 235 251 228 214 204 155 195 201 208 205 225 218 168 184 151 168 161 160 163 181 158 156 168 168 165 176 168 156 139 129 130 134 140 148 146 142 150 155 147 138 135 138 148 142 131 124 119 124 127 128 132 134 131 132 136 123 129 118 57 261 184 143 95 77 77 82 79 65 51 52 45 42
201 192 193 192 201 198 203 207 202 198 210 212 190 213 225 237 253 238 221 193 188 182 222 216 212 232 190 177 175 168 161 164 174 173 175 162 164 159 151 172 154 132 140 140 147 149 151 151 140 137 151 150 141 138 140 145 142 128 125 119 122 126 122 126 120 114 120 113 105 116 136 111 169 216 146 101 75 77 79 90 78 83 79 67 52 43
196 207 188 195 198 202 201 201 209 191 207 211 208 204 222 231 253 260 264 255 201 199 222 221 203 224 228 155 169 184 166 168 181 179 172 162 153 162 161 170 137 150 142 152 144 143 146 144 139 136 138 142 136 129 132 129 127 130 128 121 122 119 121 119 106 109 115 131 135 130 108 193 168 146 88 85 100 90 88 80 75 63 63 56 57 59
181 213 191 195 198 203 197 197 207 191 209 205 225 195 206 218 227 250 270 252 204 208 232 236 201 214 226 166 172 179 175 174 171 171 178 165 160 167 161 167 135 139 142 145 147 134 132 128 129 137 139 133 133 132 130 131 132 131 128 130 123 121 120 118 123 130 126 121 111 106 81 60 73 79 101 125 101 100 78 76 69 74 74 65 53 46
174 195 208 189 195 204 195 190 206 204 197 211 216 218 184 205 224 235 260 242 193 218 222 229 229 193 231 161 183 179 168 174 166 167 178 173 163 168 163 171 137 143 147 145 133 130 128 131 137 133 130 132 131 130 127 126 130 128 141 135 124 120 112 109 98 89 81 75 77 73 71 61 39 65 76 69 87 83 75 65 105 137 121 97 87 63
180 196 194 186 195 200 182 194 191 199 185 212 219 217 187 187 193 211 218 223 210 217 205 215 232 216 215 160 175 170 173 174 172 170 174 172 165 160 147 141 148 146 144 147 138 133 138 136 139 137 135 137 136 132 130 129 130 133 132 118 106 102 102 96 89 82 78 77 73 78 87 82 68 76 82 94 93 84 89 118 79 52 56 65 67 49
186 187 179 182 179 197 184 196 175 197 181 206 215 204 196 191 185 210 201 220 225 241 258 219 219 244 203 155 169 174 181 171 169 174 174 171 162 163 136 132 135 145 143 140 139 145 145 143 138 138 137 136 134 133 131 132 131 133 119 103 99 101 98 96 92 89 86 85 88 83 87 95 95 78 57 43 59 57 73 71 49 48 57 64 53 58
189 180 188 184 190 189 207 203 189 194 182 204 211 200 206 207 189 195 198 201 210 213 221 251 234 219 214 175 172 172 175 175 170 173 167 157 145 136 133 137 130 132 139 144 151 152 147 143 139 137 139 141 138 135 135 134 132 127 115 111 108 104 104 98 95 92 87 76 67 72 72 88 85 66 64 52 42 56 64 63 80 68 70 66 54 62
185 178 167 200 205 187 215 214 207 182 196 204 206 195 203 215 176 214 178 216 211 218 236 217 262 187 206 8 156 162 169 176 162 164 153 146 115 127 136 138 143 150 148 147 148 151 145 141 144 146 141 137 134 134 135 134 131 121 117 117 112 109 102 98 97 95 88 77 71 67 66 80 103 116 102 87 62 62 59 62 75 81 71 79 95 57
177 190 175 182 213 189 210 208 218 178 201 186 201 199 206 207 201 176 200 162 33 299 230 186 223 124 43 188 130 170 166 168 163 156 161 132 125 131 139 142 145 149 148 146 152 154 144 145 150 149 141 138 136 135 134 132 125 121 122 116 106 101 101 98 98 99 101 103 103 98 101 88 78 87 104 104 99 92 82 83 79 85 90 79 60 63
164 182 168 177 200 198 203 208 211 181 216 180 206 193 207 232 244 206 206 132 240 220 211 204 207 184 184 149 191 170 178 174 175 157 148 137 134 137 144 145 149 152 153 152 151 150 144 148 151 144 138 138 138 137 133 124 121 121 117 114 109 111 111 112 113 111 115 122 129 133 129 122 115 118 126 135 134 132 124 117 107 102 93 86 78 68
182 177 162 181 196 180 196 205 221 188 211 216 204 160 204 185 233 230 222 191 190 213 219 219 218 217 199 160 175 167 184 174 148 154 151 152 134 139 144 150 146 150 151 152 150 148 147 147 142 137 137 136 132 124 119 122 123 119 112 107 113 118 121 120 119 122 125 140 135 120 115 114 122 130 109 80 86 95 105 99 92 82 72 66 62 60
188 191 148 178 196 168 192 202 204 187 200 230 196 184 207 234 222 220 207 237 195 207 218 219 217 228 199 168 175 173 190 177 163 164 177 156 143 145 146 148 151 149 151 147 149 146 143 140 136 135 132 132 129 126 129 132 129 121 119 121 118 120 123 122 124 136 143 131 125 129 132 131 127 116 114 116 110 109 105 101 92 87 78 78 75 53
194 225 159 170 192 159 200 192 201 189 185 203 219 196 185 235 223 239 185 220 197 210 204 219 217 220 206 155 175 177 190 184 175 154 132 134 135 140 145 146 150 148 150 147 141 140 139 135 133 133 132 131 131 135 131 123 121 114 111 118 126 126 128 131 140 133 125 138 134 129 118 114 106 107 105 102 99 96 94 85 90 89 90 93 79 80
218 155 156 159 199 178 201 190 207 195 195 202 222 201 194 199 209 196 216 202 217 205 207 197 237 216 191 199 177 179 170 169 180 129 133 136 133 129 137 144 148 150 146 148 143 143 136 138 136 136 135 135 141 133 114 110 113 123 129 130 128 130 134 133 123 126 127 111 106 102 103 102 109 102 99 107 114 112 102 99 93 87 83 76 74 63
230 165 154 180 206 185 195 186 216 217 203 207 207 212 201 198 223 204 219 202 205 224 229 217 228 212 27 98 152 166 170 176 166 140 137 137 130 137 143 148 149 152 153 149 145 141 141 141 142 144 144 143 138 128 123 127 135 133 132 132 136 136 129 126 127 130 126 114 112 113 114 119 107 101 104 102 104 107 110 113 113 106 99 87 74 68
209 169 174 178 198 188 186 194 204 225 206 204 209 229 214 204 204 224 208 212 200 201 212 198 237 91 230 94 146 148 173 202 169 147 127 136 126 136 148 148 148 154 147 137 145 141 139 138 146 144 140 137 134 133 137 138 139 139 140 141 136 124 125 129 130 130 123 123 124 125 123 114 108 105 102 101 97 97 89 84 84 92 91 92 89 78
203 165 171 163 189 184 188 192 198 215 216 204 205 215 227 215 197 218 233 216 243 208 225 208 210 131 224 69 104 165 172 186 182 137 134 130 130 136 146 146 146 150 140 139 145 145 140 148 149 145 141 142 142 142 142 143 144 140 134 131 126 128 131 132 131 127 125 117 111 109 110 111 106 102 102 97 93 91 92 91 91 84 84 76 71 72
217 156 180 181 180 181 191 190 189 193 205 192 209 210 224 232 208 194 220 195 228 214 223 227 209 126 112 106 154 183 184 192 183 117 128 132 138 143 145 142 146 150 138 143 146 144 143 148 143 143 145 148 148 146 143 139 134 136 140 133 131 133 134 136 132 129 128 129 128 126 122 114 109 106 103 103 99 98 96 99 93 90 88 90 91 89
202 162 207 197 195 193 205 175 163 192 188 214 205 215 205 223 228 214 201 222 200 200 249 228 237 127 138 157 183 200 187 181 94 128 125 130 133 139 144 144 150 148 142 148 148 140 140 146 149 148 150 149 148 147 141 140 143 143 148 136 132 134 136 136 135 133 132 132 127 126 118 113 113 109 106 103 104 104 102 95 94 97 97 102 101 94
203 229 200 204 207 201 194 198 169 192 199 206 212 210 207 203 229 233 201 212 201 216 214 245 118 142 149 166 184 192 102 89 118 118 129 128 139 138 138 142 144 142 143 146 149 142 145 149 147 146 146 147 148 143 136 140 142 159 131 117 131 134 133 137 134 134 132 129 126 117 114 114 113 109 105 102 98 94 90 84 81 81 81 81 80 75
185 248 205 209 213 200 184 202 184 187 208 203 219 211 206 213 217 235 240 223 195 229 243 123 115 136 153 187 166 70 92 108 102 122 117 129 118 108 130 140 146 147 146 148 149 149 147 147 146 146 147 146 141 140 142 140 143 147 136 130 132 141 143 142 135 135 129 123 120 119 118 112 108 108 108 107 104 101 100 101 100 98 90 79 71 71
170 235 227 205 212 218 206 208 188 188 193 203 207 211 206 212 218 228 243 216 203 208 231 204 141 147 167 188 112 121 113 111 114 114 128 122 121 125 130 138 146 150 149 149 150 154 148 142 146 145 142 138 139 143 146 146 147 147 135 136 138 137 140 137 132 128 127 128 125 121 121 119 116 111 108 107 105 102 100 95 92 89 87 81 74 73
210 198 257 245 192 210 241 221 185 196 201 222 210 211 212 214 219 218 225 237 229 229 214 221 144 202 179 137 116 120 116 109 120 129 134 141 143 138 138 141 146 154 154 146 150 153 147 144 143 142 142 142 143 145 146 145 143 135 127 135 142 136 141 137 127 129 128 127 129 125 122 121 118 117 110 103 104 105 100 95 87 82 80 78 81 85
194 294 267 237 204 209 232 216 196 190 209 209 204 212 214 212 220 206 213 215 238 217 222 221 210 220 154 117 125 129 128 130 135 142 141 147 151 155 157 153 149 148 155 153 145 139 142 142 141 142 140 135 136 142 143 138 137 140 140 141 140 139 138 132 131 132 133 129 129 129 126 123 121 118 120 117 107 106 106 106 102 97 90 91 89 80
182 245 242 192 202 200 212 236 222 233 207 223 221 204 204 213 218 221 215 213 216 221 230 219 211 174 127 121 126 143 146 145 144 153 157 157 162 161 163 162 159 160 157 145 136 138 141 138 136 130 127 134 147 146 138 140 143 141 140 138 135 139 130 134 135 135 131 132 130 127 127 125 124 122 117 113 110 106 103 95 96 90 86 84 77 73
181 244 220 179 207 202 212 202 103 262 210 221 249 281 242 209 205 219 217 211 198 200 233 239 245 124 131 139 144 155 164 163 157 156 152 157 160 166 162 164 164 151 143 139 138 129 127 130 119 117 130 145 137 134 135 148 147 134 132 138 141 131 139 138 135 133 134 131 130 130 128 124 121 116 112 113 110 106 99 98 95 96 94 93 81 71
190 225 233 156 222 199 169 192 206 225 222 48 347 282 253 270 238 221 226 221 205 196 212 217 213 229 135 150 153 161 151 145 141 145 155 165 170 172 169 158 147 138 145 139 131 133 135 134 135 143 153 147 144 141 145 142 127 125 137 144 122 127 139 137 136 135 132 131 129 123 119 120 117 116 115 110 106 101 98 97 99 97 91 82 83 85
204 216 251 176 219 213 170 185 217 226 39 349 356 331 327 300 321 288 213 227 222 210 199 215 212 217 132 145 144 129 137 133 145 150 153 160 170 180 171 145 143 143 142 145 138 137 141 148 153 155 147 143 145 147 138 130 130 133 131 127 132 139 140 138 133 126 123 121 124 127 128 124 118 114 115 113 108 105 102 94 92 92 87 85 84 82
188 218 204 177 222 220 195 192 223 120 155 214 215 239 255 264 241 248 316 213 211 212 203 202 214 218 145 152 152 134 131 148 156 151 149 154 169 183 152 136 142 137 134 138 140 145 153 155 158 153 145 144 140 128 121 114 115 118 132 141 144 135 126 124 125 128 130 135 132 126 122 123 123 120 116 114 111 109 107 108 106 101 102 97 95 92
189 210 182 217 169 265 191 197 212 231 251 217 204 207 231 262 274 275 260 306 241 214 199 195 196 216 152 153 154 151 137 148 169 157 149 149 172 141 123 133 131 134 138 135 143 146 149 147 137 138 137 131 131 133 130 130 128 136 142 137 135 133 136 137 137 139 137 128 123 124 126 122 119 117 117 115 112 109 108 110 113 115 121 120 119 109
188 218 181 225 188 204 238 214 207 232 215 273 171 189 184 223 252 122 320 250 217 271 249 210 206 207 219 160 167 147 141 164 173 157 155 155 153 128 134 136 136 139 138 139 141 143 141 142 141 135 128 129 133 138 140 134 130 133 149 149 145 144 141 141 137 130 124 122 122 118 115 117 114 110 102 100 104 110 112 106 102 98 102 116 126 131
195 197 200 219 244 202 225 216 227 234 135 41 147 178 172 161 115 124 208 234 232 237 252 259 241 197 206 207 134 138 154 172 181 163 157 151 128 133 134 139 139 141 144 145 147 145 142 141 139 135 137 140 138 146 144 137 146 155 150 143 140 138 134 128 124 120 117 113 106 99 99 106 114 116 119 119 112 110 105 113 126 138 150 142 121 114
207 186 205 215 212 200 200 226 240 122 106 121 147 121 150 155 171 190 202 122 348 311 233 226 247 257 203 163 139 159 169 168 182 149 148 143 128 138 141 144 146 144 147 143 138 135 138 145 147 146 147 153 158 151 143 152 148 144 140 133 129 127 124 120 119 120 119 119 120 123 125 126 123 117 115 116 113 109 108 107 121 146 136 110 98 100
199 202 180 228 221 219 194 228 239 89 48 141 120 176 140 163 186 206 73 300 301 297 237 216 220 228 252 135 160 154 173 189 128 137 146 143 141 142 141 140 139 138 139 139 140 144 141 148 156 153 158 149 137 144 152 147 141 135 127 125 126 126 126 128 128 126 129 135 137 136 131 125 120 120 118 118 119 119 114 123 129 108 103 111 131 145
181 198 199 201 212 241 213 210 231 233 189 232 148 167 161 205 93 21 312 350 327 336 319 236 203 214 223 215 185 169 154 126 133 140 132 136 141 144 145 144 145 144 145 145 150 151 150 147 149 147 144 149 153 151 146 138 133 134 133 133 133 134 135 135 139 143 143 137 130 126 123 120 121 119 123 120 121 122 126 131 120 109 112 130 136 133
174 211 194 210 213 224 200 230 217 16 144 189 149 166 198 47 99 25 310 8 353 345 309 328 287 216 195 219 207 148 126 133 134 135 131 139 140 141 143 142 136 134 137 142 143 143 143 143 144 147 149 148 144 138 137 139 138 139 138 138 143 144 144 146 148 141 131 127 127 127 128 131 129 121 117 118 119 126 133 137 141 150 156 163 161 165
169 217 120 234 164 227 317 64 77 32 92 106 80 50 104 123 117 49 352 50 29 349 338 312 348 353 292 184 111 116 128 132 142 142 137 146 147 148 148 149 153 146 144 143 145 148 146 147 145 144 142 138 138 141 144 144 140 139 140 145 147 146 148 145 136 130 131 133 133 134 134 128 125 126 124 129 135 140 153 162 170 157 174 172 159 153
157 227 90 199 269 92 110 112 106 98 125 114 66 81 130 138 103 335 47 16 82 357 16 41 350 25 31 91 110 126 130 132 116 128 138 150 145 144 147 149 140 138 140 142 144 149 147 146 144 143 140 141 143 145 147 143 143 143 143 144 146 148 144 137 134 137 140 138 139 136 133 129 127 127 132 139 144 149 160 166 163 156 155 129 124 130
209 215 230 236 311 288 186 143 133 131 164 128 99 131 90 189 163 190 190 156 38 24 350 87 169 98 116 113 121 130 136 135 133 134 143 146 151 150 151 147 143 146 147 149 149 147 148 146 144 143 141 142 146 147 145 143 145 142 142 148 151 145 139 140 141 140 139 137 134 132 131 132 132 139 147 149 147 154 151 149 146 131 123 129 124 89
222 214 242 218 206 224 267 109 145 150 137 162 167 173 205 136 136 140 251 77 40 13 25 26 145 187 181 141 140 150 124 133 137 143 145 147 150 151 152 148 145 144 148 148 149 151 145 145 144 145 143 142 147 143 143 146 146 147 150 150 146 141 142 142 143 140 138 137 135 134 136 131 136 142 151 146 139 135 135 86 59 62 47 33 8 14
322 298 223 193 223 216 164 108 80 65 346 231 215 239 96 136 103 123 96 134 171 128 63 62 145 178 203 174 169 141 125 136 138 145 148 154 150 146 149 156 153 145 150 151 153 151 149 149 147 146 142 142 142 142 144 146 148 153 152 148 145 145 145 143 141 138 137 136 138 136 131 141 163 153 107 77 73 56 29 53 96 82 65 37 29 41
2 262 339 303 226 190 34 357 334 179 175 35 336 33 73 86 104 105 161 154 142 118 180 142 133 153 102 103 141 138 130 136 138 144 144 146 154 153 145 144 149 151 153 151 150 150 148 148 144 144 143 140 142 144 146 149 152 153 152 149 148 147 143 141 141 140 140 141 139 132 145 159 159 130 113 110 97 85 67 47 51 73 103 92 74 67
88 335 344 340 346 97 106 329 10 123 129 143 208 201 107 55 114 135 133 143 120 75 242 143 121 111 118 130 145 135 126 144 147 146 141 150 152 152 146 149 149 153 153 153 150 150 147 144 143 140 138 139 144 147 149 152 152 153 153 151 149 146 144 145 142 144 143 139 137 151 162 154 134 128 124 123 118 104 102 97 60 46 64 89 96 91